KN4URY Weather Reports


Display with metric or nautical units.
time (UTC)temp
F
wind
direction
speed
MPH
gust
MPH
rain 1hr
in
rain 24hr
in
rain mn
in
humidity
%
barometer
mb
20260904190832 101 341 2.0 4.0 0.00 0.00 0.00 44 1012.8
20260904190332 102 341 1.0 6.0 0.00 0.00 0.00 44 1012.9
20260904185856 102 341 1.0 6.0 0.00 0.00 0.00 43 1012.9
20260904185334 105 341 1.0 2.0 0.00 0.00 0.00 44 1013.0
20260904184832 106 341 1.0 2.0 0.00 0.00 0.00 45 1013.1
20260904184326 105 341 1.0 3.0 0.00 0.00 0.00 47 1013.2
20260904183823 104 341 0.0 3.0 0.00 0.00 0.00 45 1013.2
20260904183348 103 341 1.0 6.0 0.00 0.00 0.00 48 1013.5
20260904182854 103 341 2.0 6.0 0.00 0.00 0.00 47 1013.5
20260904182333 102 341 2.0 4.0 0.00 0.00 0.00 46 1013.5
20260904181831 101 341 1.0 3.0 0.00 0.00 0.00 48 1013.7
20260904181330 101 341 1.0 5.0 0.00 0.00 0.00 51 1013.8
20260904180348 100 341 2.0 7.0 0.00 0.00 0.00 47 1014.0
20260904175825 100 341 1.0 5.0 0.00 0.00 0.00 50 1013.9
20260904175324 98 341 1.0 5.0 0.00 0.00 0.00 49 1014.0
20260904174823 99 341 3.0 5.0 0.00 0.00 0.00 50 1014.2
20260904174322 98 341 0.0 5.0 0.00 0.00 0.00 53 1014.2
20260904173821 98 341 2.0 5.0 0.00 0.00 0.00 51 1014.2
20260904173347 98 341 2.0 5.0 0.00 0.00 0.00 53 1014.2
20260904172852 98 341 1.0 3.0 0.00 0.00 0.00 53 1014.3
20260904172328 98 341 1.0 5.0 0.00 0.00 0.00 54 1014.3
20260904171822 98 341 1.0 7.0 0.00 0.00 0.00 52 1014.3
20260904171321 98 341 2.0 7.0 0.00 0.00 0.00 52 1014.3
20260904170820 98 341 1.0 3.0 0.00 0.00 0.00 55 1014.4
20260904170345 98 341 2.0 3.0 0.00 0.00 0.00 55 1014.5
20260904165823 98 341 1.0 7.0 0.00 0.00 0.00 51 1014.5
20260904165321 98 341 2.0 7.0 0.00 0.00 0.00 53 1014.4
20260904164820 97 341 2.0 5.0 0.00 0.00 0.00 52 1014.5
20260904164318 97 341 2.0 5.0 0.00 0.00 0.00 56 1014.5
20260904163816 97 341 1.0 3.0 0.00 0.00 0.00 55 1014.7
20260904163316 98 341 0.0 3.0 0.00 0.00 0.00 55 1014.8
20260904162816 97 341 0.0 4.0 0.00 0.00 0.00 57 1014.8
20260904162314 97 341 1.0 4.0 0.00 0.00 0.00 55 1014.9
20260904161836 96 341 2.0 4.0 0.00 0.00 0.00 55 1015.0
20260904161336 96 341 1.0 4.0 0.00 0.00 0.00 58 1015.1
20260904160835 96 341 1.0 5.0 0.00 0.00 0.00 57 1015.0
20260904160333 95 341 2.0 5.0 0.00 0.00 0.00 57 1014.9
20260904155832 94 341 3.0 4.0 0.00 0.00 0.00 57 1015.0
20260904155331 94 341 0.0 4.0 0.00 0.00 0.00 58 1015.1
20260904154858 94 341 2.0 6.0 0.00 0.00 0.00 60 1015.2
20260904154336 93 341 0.0 3.0 0.00 0.00 0.00 65 1015.2
20260904153833 92 341 1.0 5.0 0.00 0.00 0.00 66 1015.3
20260904153338 92 341 2.0 6.0 0.00 0.00 0.00 66 1015.2
20260904152812 92 341 3.0 6.0 0.00 0.00 0.00 64 1015.2
20260904152312 92 341 2.0 5.0 0.00 0.00 0.00 66 1015.2
20260904151813 92 341 2.0 6.0 0.00 0.00 0.00 66 1015.1
20260904151359 92 341 3.0 5.0 0.00 0.00 0.00 65 1015.1
20260904150836 92 341 1.0 5.0 0.00 0.00 0.00 67 1015.2
20260904150336 91 341 1.0 6.0 0.00 0.00 0.00 69 1015.3
20260904145815 90 341 2.0 4.0 0.00 0.00 0.00 69 1015.2
20260904145315 90 341 2.0 5.0 0.00 0.00 0.00 70 1015.2
20260904144840 89 341 1.0 5.0 0.00 0.00 0.00 71 1015.1
20260904144341 88 341 1.0 4.0 0.00 0.00 0.00 72 1015.1
20260904143819 88 341 1.0 5.0 0.00 0.00 0.00 73 1015.2
20260904143318 88 341 2.0 5.0 0.00 0.00 0.00 74 1015.2
20260904142816 87 341 1.0 7.0 0.00 0.00 0.00 74 1015.1
20260904142313 87 341 3.0 7.0 0.00 0.00 0.00 73 1015.2
20260904141811 86 341 2.0 6.0 0.00 0.00 0.00 75 1015.1
20260904141357 86 341 1.0 6.0 0.00 0.00 0.00 76 1015.1
20260904140835 86 341 2.0 6.0 0.00 0.00 0.00 75 1015.1
20260904140336 86 341 1.0 6.0 0.00 0.00 0.00 77 1015.1
20260904135835 85 341 1.0 4.0 0.00 0.00 0.00 78 1015.2
20260904135333 85 341 2.0 6.0 0.00 0.00 0.00 78 1015.2
20260904134827 84 341 1.0 5.0 0.00 0.00 0.00 80 1015.1
20260904134324 84 341 1.0 7.0 0.00 0.00 0.00 79 1015.0
20260904133823 83 341 2.0 7.0 0.00 0.00 0.00 80 1015.0
20260904133321 83 341 1.0 4.0 0.00 0.00 0.00 81 1015.0
20260904132820 83 341 1.0 5.0 0.00 0.00 0.00 81 1015.1
20260904132319 82 341 2.0 6.0 0.00 0.00 0.00 81 1015.1
20260904131819 82 341 0.0 7.0 0.00 0.00 0.00 82 1015.0
20260904131316 82 341 2.0 7.0 0.00 0.00 0.00 82 1015.1
20260904130816 82 341 2.0 5.0 0.00 0.00 0.00 83 1015.2
20260904130317 81 341 2.0 5.0 0.00 0.00 0.00 83 1015.2
20260904125816 81 341 1.0 6.0 0.00 0.00 0.00 84 1015.3
20260904125314 81 341 2.0 6.0 0.00 0.00 0.00 84 1015.2
20260904124856 81 341 2.0 6.0 0.00 0.00 0.00 84 1015.4
20260904124333 81 341 2.0 5.0 0.00 0.00 0.00 85 1015.5
20260904123832 80 341 2.0 5.0 0.00 0.00 0.00 86 1015.4
20260904123331 80 341 2.0 5.0 0.00 0.00 0.00 86 1015.4
20260904122857 80 341 3.0 5.0 0.00 0.00 0.00 86 1015.4
20260904122336 80 341 2.0 7.0 0.00 0.00 0.00 86 1015.3
20260904121835 79 341 3.0 7.0 0.00 0.00 0.00 87 1015.3
20260904121336 79 341 3.0 6.0 0.00 0.00 0.00 87 1015.3
20260904120816 79 341 2.0 4.0 0.00 0.00 0.00 88 1015.2
20260904120315 78 341 1.0 5.0 0.00 0.00 0.00 89 1015.2
20260904115816 78 341 2.0 5.0 0.00 0.00 0.00 89 1015.3
20260904115339 78 341 1.0 6.0 0.00 0.00 0.00 89 1015.2
20260904114816 78 341 1.0 5.0 0.00 0.00 0.00 90 1015.1
20260904114315 77 341 1.0 6.0 0.00 0.00 0.00 90 1015.1
20260904113815 77 341 2.0 6.0 0.00 0.00 0.00 90 1015.2
20260904113316 77 341 1.0 5.0 0.00 0.00 0.00 91 1015.2
20260904112817 77 341 1.0 5.0 0.00 0.00 0.00 91 1015.1
20260904112316 77 341 1.0 3.0 0.00 0.00 0.00 91 1015.1
20260904111817 77 341 1.0 4.0 0.00 0.00 0.00 91 1015.0
20260904111317 77 341 1.0 3.0 0.00 0.00 0.00 91 1015.0
20260904110817 76 341 1.0 3.0 0.00 0.00 0.00 91 1015.1
20260904110318 76 341 0.0 3.0 0.00 0.00 0.00 91 1015.0
20260904105817 76 341 1.0 3.0 0.00 0.00 0.00 91 1015.1
20260904105313 76 341 1.0 2.0 0.00 0.00 0.00 91 1015.1
20260904104812 77 341 0.0 2.0 0.00 0.00 0.00 90 1015.0
20260904104312 77 341 0.0 1.0 0.00 0.00 0.00 90 1014.9
20260904103812 77 341 0.0 1.0 0.00 0.00 0.00 90 1014.8
20260904103313 77 341 0.0 1.0 0.00 0.00 0.00 90 1014.8
20260904102812 77 341 0.0 1.0 0.00 0.00 0.00 90 1014.8
20260904102313 77 341 0.0 2.0 0.00 0.00 0.00 90 1014.7
20260904101814 77 341 0.0 2.0 0.00 0.00 0.00 89 1014.8
20260904101313 77 341 1.0 2.0 0.00 0.00 0.00 89 1014.9
20260904100813 77 341 0.0 1.0 0.00 0.00 0.00 89 1014.8
20260904100311 77 341 0.0 3.0 0.00 0.00 0.00 89 1014.9
20260904095836 78 341 1.0 3.0 0.00 0.00 0.00 89 1014.9
20260904095336 78 341 0.0 2.0 0.00 0.00 0.00 89 1014.9
20260904094836 78 341 0.0 2.0 0.00 0.00 0.00 88 1014.9
20260904094337 78 341 1.0 3.0 0.00 0.00 0.00 88 1014.9
20260904093836 78 341 1.0 4.0 0.00 0.00 0.00 88 1015.0
20260904093337 78 341 1.0 4.0 0.00 0.00 0.00 88 1014.9
20260904092838 78 341 1.0 4.0 0.00 0.00 0.00 88 1014.8
20260904092317 78 341 2.0 4.0 0.00 0.00 0.00 88 1014.8
20260904091817 78 341 1.0 3.0 0.00 0.00 0.00 87 1014.8
20260904091316 78 341 1.0 3.0 0.00 0.00 0.00 87 1014.8
20260904090816 78 341 1.0 4.0 0.00 0.00 0.00 87 1014.8
20260904090318 78 341 1.0 4.0 0.00 0.00 0.00 87 1014.8
20260904085817 78 341 1.0 5.0 0.00 0.00 0.00 87 1014.9
20260904085312 78 341 1.0 5.0 0.00 0.00 0.00 87 1014.6
20260904084838 78 341 1.0 3.0 0.00 0.00 0.00 86 1014.6
20260904084337 79 341 0.0 3.0 0.00 0.00 0.00 86 1014.5
20260904083838 79 341 1.0 3.0 0.00 0.00 0.00 86 1014.5
20260904083336 79 341 0.0 3.0 0.00 0.00 0.00 86 1014.5
20260904082841 79 341 1.0 3.0 0.00 0.00 0.00 86 1014.4
20260904082321 79 341 1.0 3.0 0.00 0.00 0.00 85 1014.4
20260904081821 79 341 2.0 4.0 0.00 0.00 0.00 85 1014.4
20260904081321 79 341 1.0 4.0 0.00 0.00 0.00 85 1014.3
20260904080822 79 341 1.0 5.0 0.00 0.00 0.00 85 1014.2
20260904080320 79 341 1.0 4.0 0.00 0.00 0.00 85 1014.3
20260904075815 79 341 1.0 4.0 0.00 0.00 0.00 84 1014.1
20260904075315 79 341 1.0 5.0 0.00 0.00 0.00 84 1014.1
20260904074816 79 341 2.0 6.0 0.00 0.00 0.00 84 1014.1
20260904074343 79 341 1.0 6.0 0.00 0.00 0.00 84 1014.0
20260904073822 79 341 1.0 6.0 0.00 0.00 0.00 84 1014.1
20260904073349 79 341 2.0 6.0 0.00 0.00 0.00 84 1013.9
20260904072827 79 341 2.0 5.0 0.00 0.00 0.00 84 1014.0
20260904072326 79 341 1.0 4.0 0.00 0.00 0.00 84 1014.0
20260904071827 79 341 1.0 2.0 0.00 0.00 0.00 84 1014.0
20260904071326 79 341 1.0 2.0 0.00 0.00 0.00 84 1014.1
20260904070826 79 341 0.0 2.0 0.00 0.00 0.00 83 1014.0
20260904070321 79 341 0.0 4.0 0.00 0.00 0.00 83 1013.9
20260904065821 79 341 1.0 4.0 0.00 0.00 0.00 83 1014.0
20260904065318 79 341 1.0 5.0 0.00 0.00 0.00 83 1013.9
20260904064818 80 341 1.0 5.0 0.00 0.00 0.00 82 1013.9
20260904064319 79 341 1.0 4.0 0.00 0.00 0.00 82 1014.0
20260904063844 80 341 1.0 3.0 0.00 0.00 0.00 82 1014.0
20260904063321 80 341 1.0 3.0 0.00 0.00 0.00 82 1014.2
20260904062818 80 341 1.0 2.0 0.00 0.00 0.00 81 1014.1
20260904062317 80 341 1.0 4.0 0.00 0.00 0.00 81 1014.3
20260904061844 80 341 0.0 3.0 0.00 0.00 0.00 81 1014.2
20260904061321 80 341 1.0 2.0 0.00 0.00 0.00 81 1014.3
20260904060818 80 341 0.0 2.0 0.00 0.00 0.00 80 1014.3
20260904060317 80 341 1.0 2.0 0.00 0.00 0.00 80 1014.5
20260904055816 81 341 1.0 2.0 0.00 0.00 0.00 80 1014.7
20260904055314 81 341 1.0 3.0 0.00 0.00 0.00 79 1014.7
20260904054841 81 341 1.0 3.0 0.00 0.00 0.00 79 1014.7
20260904054346 81 341 1.0 3.0 0.00 0.00 0.00 79 1014.7
20260904053824 81 341 1.0 3.0 0.00 0.00 0.00 79 1014.9
20260904053325 81 341 1.0 3.0 0.00 0.00 0.00 79 1015.1
20260904052852 81 341 1.0 3.0 0.00 0.00 0.00 79 1015.2
20260904052331 81 341 1.0 4.0 0.00 0.00 0.00 79 1015.3
20260904051811 81 341 1.0 5.0 0.00 0.00 0.00 78 1015.3
20260904051334 81 341 1.0 5.0 0.00 0.00 0.00 78 1015.4
20260904050833 81 341 2.0 4.0 0.00 0.00 0.00 78 1015.4
20260904050332 81 341 1.0 3.0 0.00 0.00 0.00 78 1015.5
20260904045833 81 341 1.0 3.0 0.00 0.00 0.00 78 1015.4
20260904045331 81 341 1.0 3.0 0.00 0.00 0.00 78 1015.6
20260904044831 81 341 1.0 4.0 0.00 0.00 0.00 79 1015.6
20260904044330 81 341 1.0 4.0 0.00 0.00 0.00 79 1015.6
20260904043830 81 341 0.0 2.0 0.00 0.00 0.00 79 1015.6
20260904043331 81 341 1.0 2.0 0.00 0.00 0.00 79 1015.7
20260904042830 81 341 0.0 2.0 0.00 0.00 0.00 79 1015.8
20260904042329 81 341 1.0 2.0 0.00 0.00 0.00 79 1015.7
20260904041820 81 341 0.0 1.0 0.00 0.00 0.00 79 1015.7
20260904041316 81 341 0.0 1.0 0.00 0.00 0.00 78 1015.7
20260904040815 81 341 0.0 1.0 0.00 0.00 0.00 78 1015.8
20260904040313 82 341 0.0 1.0 0.00 0.00 0.00 77 1015.7
20260904035834 82 341 0.0 1.0 0.00 0.00 0.00 77 1015.6
20260904035334 82 341 0.0 2.0 0.00 0.00 0.00 77 1015.8
20260904034834 82 341 0.0 2.0 0.00 0.00 0.00 77 1015.7
20260904034312 82 341 0.0 1.0 0.00 0.00 0.00 77 1015.7
20260904033812 82 341 0.0 1.0 0.00 0.00 0.00 78 1015.5
20260904033338 82 341 0.0 1.0 0.00 0.00 0.00 78 1015.6
20260904032813 82 341 0.0 4.0 0.00 0.00 0.00 78 1015.7
20260904032314 82 341 0.0 1.0 0.00 0.00 0.00 78 1015.5
20260904031837 82 341 0.0 3.0 0.00 0.00 0.00 78 1015.3
20260904031336 82 341 1.0 3.0 0.00 0.00 0.00 78 1015.4
20260904030835 81 341 0.0 2.0 0.00 0.00 0.00 79 1015.4
20260904030334 81 341 0.0 2.0 0.00 0.00 0.00 80 1015.2
20260904025840 81 341 0.0 1.0 0.00 0.00 0.00 81 1015.2
20260904025317 81 341 0.0 1.0 0.00 0.00 0.00 81 1015.0
20260904024819 81 341 0.0 2.0 0.00 0.00 0.00 81 1015.1
20260904024318 80 341 0.0 2.0 0.00 0.00 0.00 82 1015.2
20260904023817 80 341 0.0 0.0 0.00 0.00 0.00 83 1015.1
20260904023321 80 341 0.0 0.0 0.00 0.00 0.00 82 1015.1
20260904022818 80 341 0.0 1.0 0.00 0.00 0.00 85 1015.3
20260904022343 80 341 0.0 1.0 0.00 0.00 0.00 85 1015.3
20260904021848 80 341 0.0 0.0 0.00 0.00 0.00 85 1015.3
20260904021326 80 341 0.0 1.0 0.00 0.00 0.00 86 1015.3
20260904020852 80 341 0.0 1.0 0.00 0.00 0.00 86 1015.2
20260904020332 80 341 0.0 1.0 0.00 0.00 0.00 87 1015.2
20260904015831 80 341 0.0 1.0 0.00 0.00 0.00 87 1015.3
20260904015331 80 341 0.0 0.0 0.00 0.00 0.00 86 1015.3
20260904014830 81 341 0.0 0.0 0.00 0.00 0.00 85 1015.3
20260904014330 81 341 0.0 0.0 0.00 0.00 0.00 84 1015.3
20260904013827 81 341 0.0 0.0 0.00 0.00 0.00 84 1015.4
20260904013326 81 341 0.0 0.0 0.00 0.00 0.00 84 1015.3
20260904012831 81 341 0.0 0.0 0.00 0.00 0.00 84 1015.3
20260904012330 82 341 0.0 0.0 0.00 0.00 0.00 83 1015.3
20260904011830 82 341 0.0 0.0 0.00 0.00 0.00 83 1015.2
20260904011331 82 341 0.0 0.0 0.00 0.00 0.00 83 1015.2
20260904010830 82 341 0.0 0.0 0.00 0.00 0.00 82 1015.2
20260904010330 82 341 0.0 0.0 0.00 0.00 0.00 81 1015.2
20260904005829 83 341 0.0 0.0 0.00 0.00 0.00 81 1015.3
20260904005328 83 341 0.0 0.0 0.00 0.00 0.00 79 1015.3
20260904004828 83 341 0.0 1.0 0.00 0.00 0.00 79 1015.3
20260904004327 84 341 0.0 1.0 0.00 0.00 0.00 77 1015.3
20260904003822 84 341 0.0 0.0 0.00 0.00 0.00 78 1015.2
20260904003323 84 341 0.0 0.0 0.00 0.00 0.00 76 1015.4
20260904002823 85 341 0.0 0.0 0.00 0.00 0.00 76 1015.3
20260904002349 86 341 0.0 0.0 0.00 0.00 0.00 74 1015.1
20260904001828 86 341 0.0 0.0 0.00 0.00 0.00 74 1014.8
20260904001329 87 341 0.0 0.0 0.00 0.00 0.00 71 1014.8
20260904000828 87 341 0.0 0.0 0.00 0.00 0.00 71 1014.6
20260904000329 88 341 0.0 0.0 0.00 0.00 0.00 70 1014.6
20260903235824 89 341 0.0 0.0 0.00 0.00 0.00 68 1014.6
20260903235325 90 341 0.0 0.0 0.00 0.00 0.00 66 1014.6
20260903234826 91 341 0.0 0.0 0.00 0.00 0.00 65 1014.6
20260903234325 92 341 0.0 0.0 0.00 0.00 0.00 64 1014.5
20260903233820 94 341 0.0 0.0 0.00 0.00 0.00 62 1014.4
20260903233320 96 341 0.0 0.0 0.00 0.00 0.00 60 1014.4
20260903232846 97 341 0.0 0.0 0.00 0.00 0.00 58 1014.3
20260903232329 99 341 0.0 0.0 0.00 0.00 0.00 55 1014.2
20260903231829 101 341 0.0 0.0 0.00 0.00 0.00 53 1014.2
20260903231328 103 341 0.0 0.0 0.00 0.00 0.00 51 1014.1
20260903230828 103 341 0.0 0.0 0.00 0.00 0.00 50 1014.1
20260903230328 104 341 0.0 0.0 0.00 0.00 0.00 50 1014.0
20260903225855 104 341 0.0 0.0 0.00 0.00 0.00 50 1013.9
20260903225335 104 341 0.0 0.0 0.00 0.00 0.00 49 1014.0
20260903224831 104 341 0.0 1.0 0.00 0.00 0.00 50 1014.0
20260903224331 104 341 0.0 1.0 0.00 0.00 0.00 49 1014.0
20260903223830 104 341 0.0 0.0 0.00 0.00 0.00 50 1013.9
20260903223329 104 341 0.0 1.0 0.00 0.00 0.00 50 1013.9
20260903222828 104 341 0.0 1.0 0.00 0.00 0.00 49 1013.9
20260903222354 104 341 0.0 1.0 0.00 0.00 0.00 50 1014.1
20260903221832 104 341 0.0 1.0 0.00 0.00 0.00 48 1014.1
20260903221333 104 341 0.0 2.0 0.00 0.00 0.00 47 1014.0
20260903220833 103 341 0.0 2.0 0.00 0.00 0.00 50 1014.1
20260903220331 104 341 0.0 1.0 0.00 0.00 0.00 46 1014.2
20260903215829 104 341 0.0 1.0 0.00 0.00 0.00 49 1014.2
20260903215329 103 341 0.0 2.0 0.00 0.00 0.00 46 1014.1
20260903214824 104 341 0.0 1.0 0.00 0.00 0.00 46 1014.1
20260903214351 104 341 0.0 2.0 0.00 0.00 0.00 47 1014.2
20260903213829 103 341 0.0 2.0 0.00 0.00 0.00 48 1014.3
20260903213329 103 341 0.0 4.0 0.00 0.00 0.00 49 1014.2
20260903212829 102 341 1.0 4.0 0.00 0.00 0.00 48 1014.2
20260903212329 103 341 0.0 4.0 0.00 0.00 0.00 47 1014.2
20260903211828 103 341 0.0 2.0 0.00 0.00 0.00 49 1014.3
20260903211330 103 341 1.0 3.0 0.00 0.00 0.00 46 1014.3
20260903210830 103 341 1.0 3.0 0.00 0.00 0.00 46 1014.3
20260903210329 104 341 0.0 1.0 0.00 0.00 0.00 46 1014.4
20260903205829 104 341 0.0 1.0 0.00 0.00 0.00 46 1014.5
20260903205328 104 341 0.0 1.0 0.00 0.00 0.00 48 1014.6
20260903204849 104 341 0.0 1.0 0.00 0.00 0.00 47 1014.6
20260903204326 103 341 0.0 2.0 0.00 0.00 0.00 47 1014.5
20260903203825 103 341 1.0 2.0 0.00 0.00 0.00 46 1014.7
20260903203325 102 341 0.0 2.0 0.00 0.00 0.00 48 1014.8
20260903202821 102 341 0.0 4.0 0.00 0.00 0.00 48 1014.8
20260903202321 102 341 2.0 4.0 0.00 0.00 0.00 46 1014.8
20260903201820 102 341 1.0 4.0 0.00 0.00 0.00 45 1014.7
20260903201320 101 341 0.0 5.0 0.00 0.00 0.00 43 1014.9
20260903200847 102 341 1.0 4.0 0.00 0.00 0.00 44 1014.9
20260903200323 101 341 1.0 4.0 0.00 0.00 0.00 45 1015.0
20260903195820 100 341 1.0 4.0 0.00 0.00 0.00 48 1015.2
20260903195316 100 341 1.0 5.0 0.00 0.00 0.00 48 1015.2
20260903194816 100 341 2.0 4.0 0.00 0.00 0.00 48 1015.3
20260903194342 101 341 1.0 3.0 0.00 0.00 0.00 49 1015.2
20260903193848 101 341 2.0 3.0 0.00 0.00 0.00 45 1015.4
20260903193325 103 341 1.0 2.0 0.00 0.00 0.00 47 1015.4
20260903192831 103 341 0.0 2.0 0.00 0.00 0.00 47 1015.6
20260903192357 101 341 0.0 7.0 0.00 0.00 0.00 50 1015.6
20260903191813 101 341 1.0 7.0 0.00 0.00 0.00 46 1015.7
20260903191334 103 341 0.0 2.0 0.00 0.00 0.00 43 1015.7